Weather History for Kaneohe MCBH, HI

Change the Weather History Date:

Thursday, February 14, 2013

  Actual Average Record
Temperature  
Mean Temperature 72 °F -  
Max Temperature 77 °F 75 °F 82 °F (2004)
Min Temperature 68 °F 67 °F 66 °F (1998)
Cooling Degree Days 8    
Growing Degree Days 22 (Base 50)    
Moisture  
Dew Point 58 °F    
Average Humidity 61    
Maximum Humidity 72    
Minimum Humidity 52    
Precipitation  
Precipitation 0.00 in - - ()
Sea Level Pressure  
Sea Level Pressure 30.07 in    
Wind  
Wind Speed 8 mph (NE)    
Max Wind Speed 10 mph    
Max Gust Speed 18 mph    
Visibility 10 miles    
Events      
Averages and records for this station are not official NWS values.
T = Trace of Precipitation, MM = Missing Value Source: NWS Daily Summary

Daily Weather History Graph

Daily Weather History Graph

Search for Another Location

Airport:

Trip Planner

Search our weather history database for the weather conditions in past years. The results will help you decide how hot, cold, wet, or windy it might be!

Date:

Astronomy

Feb. 14, 2013 Rise Set
Actual Time 7:02 AM HST 6:28 PM HST
Civil Twilight 6:39 AM HST 6:51 PM HST
Nautical Twilight 6:13 AM HST 7:17 PM HST
Astronomical Twilight 5:47 AM HST 7:43 PM HST
Moon 9:53 AM HST (2/14) 10:55 PM HST (2/14)
Length of Visible Light 12h 12m
Length of Day
11h 26m
Waxing Crescent, 23% of the Moon is Illuminated
Feb 14
Waxing Crescent
Feb 17
First Quarter
Feb 25
Full
Mar 4
Last Quarter
Mar 11
New

Hourly Weather History & Observations

Time (HST) Temp. Dew Point Humidity Pressure Visibility Wind Dir Wind Speed Gust Speed Precip Events Conditions
12:57 AM 69.3 °F 60.1 °F 72% 30.08 in 10.0 mi ENE 6.9 mph - 0.00 in   Overcast
1:57 AM 70.0 °F 57.9 °F 65% 30.07 in 10.0 mi ENE 9.2 mph - N/A   Mostly Cloudy
2:57 AM 70.0 °F 55.0 °F 59% 30.05 in 10.0 mi ENE 6.9 mph - N/A   Clear
3:57 AM 68.9 °F 54.0 °F 59% 30.05 in 10.0 mi NE 8.1 mph - N/A   Scattered Clouds
4:57 AM 69.6 °F 54.0 °F 57% 30.05 in 10.0 mi NE 10.4 mph - N/A   Scattered Clouds
5:57 AM 69.3 °F 57.0 °F 65% 30.06 in 10.0 mi NE 6.9 mph - N/A   Clear
6:57 AM 70.2 °F 57.0 °F 63% 30.07 in 10.0 mi ENE 8.1 mph 17.3 mph N/A   Mostly Cloudy
7:57 AM 70.2 °F 57.9 °F 65% 30.09 in 10.0 mi ENE 8.1 mph - N/A   Clear
8:57 AM 73.4 °F 57.9 °F 58% 30.11 in 10.0 mi ENE 8.1 mph - N/A   Clear
9:57 AM 73.4 °F 57.9 °F 58% 30.12 in 10.0 mi NE 9.2 mph - N/A   Scattered Clouds
10:57 AM 75.2 °F 60.1 °F 59% 30.10 in 10.0 mi NE 9.2 mph 17.3 mph N/A   Partly Cloudy
12:57 PM 77.0 °F 57.9 °F 52% 30.06 in 10.0 mi NE 10.4 mph - N/A   Clear
1:57 PM 77.0 °F 59.0 °F 54% 30.03 in 10.0 mi ENE 10.4 mph - N/A   Partly Cloudy
2:57 PM 77.0 °F 61.0 °F 58% 30.02 in 10.0 mi NE 10.4 mph - N/A   Partly Cloudy
3:57 PM 77.0 °F 60.1 °F 56% 30.02 in 10.0 mi NE 10.4 mph - N/A   Scattered Clouds
7:57 PM 73.4 °F 59.0 °F 61% 30.05 in 10.0 mi ENE 8.1 mph 18.4 mph N/A   Scattered Clouds
8:57 PM 71.6 °F 60.1 °F 67% 30.06 in 10.0 mi ENE 6.9 mph 16.1 mph N/A   Scattered Clouds
9:57 PM 73.4 °F 60.1 °F 63% 30.08 in 10.0 mi ENE 9.2 mph 18.4 mph N/A   Mostly Cloudy
10:57 PM 71.6 °F 61.0 °F 69% 30.08 in 10.0 mi ENE 6.9 mph 16.1 mph 0.00 in   Mostly Cloudy
11:57 PM 72.3 °F 60.1 °F 65% 30.07 in 10.0 mi ENE 8.1 mph - N/A   Scattered Clouds